This is the latest recevied weather packets stored in our database for station/object N9DMT-13. If no packets are shown the sender has not sent any weather packets the latest 1 day(s).
| Time | Temp. | Humidity | Pressure | Rain* | Wind** | Luminosity | Snow |
|---|---|---|---|---|---|---|---|
| 1778025231 | 10.56° C | 41% | 977.8 hPa | 0 mm | - | - | - |
| 1778024930 | 10.56° C | 40% | 977.9 hPa | 0 mm | - | - | - |
| 1778023426 | 11.11° C | 37% | 977.8 hPa | 0 mm | - | - | - |
| 1778022824 | 11.67° C | 37% | 977.9 hPa | 0 mm | - | - | - |
| 1778021922 | 11.67° C | 37% | 978.2 hPa | 0 mm | - | - | - |
| 1778021320 | 11.67° C | 38% | 978.1 hPa | 0 mm | - | - | - |
| 1778020719 | 11.67° C | 37% | 977.9 hPa | 0 mm | - | - | - |
| 1778020418 | 12.22° C | 35% | 978 hPa | 0 mm | - | - | - |
| 1778020117 | 12.78° C | 35% | 977.7 hPa | 0 mm | - | - | - |
| 1778019215 | 11.67° C | 36% | 977.7 hPa | 0 mm | - | - | - |
| 1778018914 | 11.67° C | 35% | 977.6 hPa | 0 mm | - | - | - |
| 1778018012 | 12.22° C | 37% | 977.7 hPa | 0 mm | - | - | - |
| 1778017410 | 11.67° C | 38% | 977.8 hPa | 0 mm | - | - | - |
| 1778015906 | 12.78° C | 36% | 977.7 hPa | 0 mm | - | - | - |
| 1778014703 | 12.78° C | 40% | 977.9 hPa | 0 mm | - | - | - |
| 1778013199 | 13.33° C | 34% | 978.2 hPa | 0 mm | - | - | - |
| 1778012898 | 12.78° C | 34% | 978.3 hPa | 0 mm | - | - | - |
| 1778011996 | 13.89° C | 34% | 978.1 hPa | 0 mm | - | - | - |
| 1778011695 | 13.89° C | 36% | 978.2 hPa | 0 mm | - | - | - |
| 1778008981 | 13.33° C | 36% | 978.3 hPa | 0 mm | - | - | - |
| 1778007477 | 13.89° C | 33% | 978.2 hPa | 0 mm | - | - | - |
* Rain latest hour (hover to see other rain measurements)
** Current wind speed in m/s (hover to see current wind gust speed)